Wind_Speed
48 48 49 49 49 50 50 49 49 48 47 46 45 44 43 42 41 41 40 39 38 37 36 34 32 32 36 39 41 40 38 37 35 34 35 36 34 32 31 29 27 28 29 28 28 28 29 29 29 29 30 30 30 29 29 28 27 26 24 23 22 22 22 21 21 20 19 18 18 17 16 16 16 16 16 16 18 18 18 19 20 21 21 20 18 17 18 19
48 48 48 49 49 50 50 50 50 49 49 48 47 46 45 44 43 42 41 41 40 39 38 36 35 32 32 35 38 40 40 39 36 35 37 36 35 33 30 29 28 28 29 28 28 28 29 29 29 30 31 31 31 30 29 28 27 26 24 23 24 24 24 24 23 22 21 20 19 18 17 17 17 17 17 18 19 19 20 20 21 22 22 21 19 18 19 20
48 48 49 49 49 50 50 50 50 50 49 49 48 47 47 46 45 43 42 42 41 40 39 38 37 35 33 32 34 37 39 40 37 36 38 37 35 34 31 30 29 29 29 28 28 27 28 28 29 29 30 31 31 30 30 28 27 26 24 24 26 26 26 26 25 23 22 21 20 19 18 18 18 17 18 19 20 19 21 21 21 24 23 22 20 20 21 22
47 47 48 49 49 49 50 50 50 50 50 50 49 48 48 47 46 45 44 43 42 42 41 40 39 38 36 34 32 32 35 37 38 38 39 39 37 34 32 31 30 29 29 28 27 27 28 28 29 29 30 31 31 30 29 28 27 26 26 26 27 28 28 27 25 24 23 22 21 20 19 19 18 18 18 19 20 20 21 22 22 24 23 21 20 21 22 23
45 45 46 46 47 48 48 49 49 50 50 50 50 49 49 48 48 47 46 44 43 42 42 41 40 39 38 37 35 32 32 33 36 38 41 40 38 35 33 32 31 30 29 28 27 27 28 29 29 30 30 30 30 30 29 28 28 27 27 28 29 29 28 26 26 25 24 23 22 21 20 20 19 18 18 19 20 20 22 22 22 22 21 19 20 22 24 25
43 44 44 44 45 46 47 47 48 48 49 49 49 50 50 49 49 48 47 46 44 43 43 42 42 41 40 39 38 35 33 32 32 35 39 41 39 36 34 33 33 31 29 28 28 28 28 29 29 29 30 30 31 31 30 30 29 28 29 30 30 30 28 27 26 25 24 23 22 21 21 20 20 19 18 19 20 21 22 21 20 19 19 19 21 23 25 26
42 42 42 42 43 44 45 46 46 47 48 48 49 49 50 50 50 49 48 48 46 44 43 43 43 42 41 41 40 38 36 33 32 32 36 39 40 38 36 34 33 32 30 29 29 29 28 29 29 30 31 31 31 32 32 31 30 29 30 31 31 30 28 28 27 26 24 24 22 22 22 22 21 21 20 19 20 22 21 19 17 18 19 21 22 24 26 26
42 42 42 41 42 42 43 44 45 46 47 48 48 49 50 50 50 50 50 49 48 46 45 43 43 43 42 42 41 40 37 36 35 32 32 36 39 39 37 35 34 33 31 30 30 30 29 30 30 30 31 31 32 33 33 32 30 30 31 32 32 30 30 28 27 26 25 24 22 22 23 22 22 22 22 22 23 22 19 18 18 19 21 22 23 26 26 25
42 42 42 42 42 42 42 42 43 44 45 46 47 48 50 50 51 51 51 50 49 48 47 45 44 43 43 42 42 41 38 38 38 34 31 33 37 39 39 37 35 34 33 32 31 30 30 30 31 31 31 31 32 33 33 33 31 30 32 33 32 31 30 28 27 26 25 24 23 23 23 23 23 23 23 25 26 22 19 19 20 21 23 23 24 26 25 24
43 43 43 43 43 43 43 42 42 43 44 45 46 47 48 49 50 51 51 51 50 50 49 47 45 44 43 43 43 41 39 40 40 36 34 33 35 38 40 39 37 36 34 33 31 31 31 31 32 32 31 32 32 33 33 33 31 31 33 34 33 31 29 27 27 26 26 25 24 25 24 24 24 24 27 29 25 20 19 20 21 22 23 22 24 24 23 23
45 45 44 44 44 44 44 44 43 43 44 44 45 46 47 48 49 50 51 51 51 51 50 49 47 45 44 43 43 42 40 41 41 40 37 35 35 37 40 40 39 37 35 34 32 32 32 32 32 32 32 32 32 32 33 33 31 32 34 34 32 30 29 28 28 27 27 26 26 26 25 25 26 27 30 28 21 19 20 21 21 22 22 22 22 22 21 23
46 46 46 46 46 46 45 45 45 44 44 45 45 46 47 47 47 49 50 51 51 51 51 51 50 47 46 44 43 42 42 42 43 42 39 38 37 36 38 40 39 37 36 35 34 33 32 32 32 32 33 32 32 33 33 33 33 33 34 34 32 31 30 29 29 28 28 28 27 26 27 28 29 31 30 25 19 20 21 21 20 20 20 20 21 21 21 22
47 47 47 47 47 47 46 46 46 46 46 46 46 47 47 47 47 47 48 50 51 52 52 52 51 50 48 45 43 43 43 42 43 42 40 39 38 36 36 39 40 38 37 36 36 34 33 32 32 33 33 33 33 33 33 33 33 34 34 34 32 31 31 30 30 29 29 29 27 27 31 31 31 31 27 22 19 21 21 20 20 19 20 20 20 21 21 21
48 48 48 48 48 48 48 47 47 47 47 47 47 48 48 48 48 47 47 47 49 51 52 52 52 51 50 46 44 44 43 42 43 42 41 39 38 36 36 38 40 40 39 38 37 36 34 33 33 33 33 33 34 33 33 33 33 34 34 34 33 32 32 31 31 31 30 30 28 30 33 32 31 30 25 20 21 23 22 20 20 20 21 21 21 20 19 20
49 49 49 50 50 50 50 49 49 48 48 48 49 49 49 49 49 48 47 46 47 49 50 51 51 52 51 47 45 45 43 43 43 43 42 40 38 37 37 38 41 42 42 41 39 38 36 35 34 33 33 33 33 33 33 33 33 34 34 34 33 33 33 32 32 32 31 30 30 32 33 31 31 28 23 21 23 25 23 21 22 22 22 21 20 19 19 21
51 51 51 50 51 51 51 51 50 50 50 49 50 50 50 50 50 49 48 47 46 46 48 49 50 51 51 48 46 45 44 43 43 43 42 40 39 39 39 39 41 43 43 42 41 39 38 37 36 35 34 33 34 33 33 34 34 34 34 34 34 34 34 33 33 32 31 31 31 33 32 30 30 26 23 23 25 25 23 23 24 24 23 22 21 20 21 22
53 53 52 52 52 51 51 51 52 52 51 51 51 51 51 52 52 51 50 48 47 45 46 47 48 49 49 48 46 45 45 45 44 43 42 41 40 40 40 40 41 43 44 44 43 41 40 39 37 35 34 34 34 34 34 34 34 34 34 35 35 35 35 34 33 32 32 32 32 32 29 28 28 25 22 24 25 24 22 23 24 24 24 23 22 22 22 22
55 55 54 54 53 52 52 52 52 52 52 52 52 52 52 52 53 52 52 50 49 47 46 45 46 48 47 46 46 46 45 45 44 43 42 42 42 41 41 41 42 43 45 45 44 43 42 41 38 37 36 35 35 34 34 34 33 33 34 35 35 35 35 34 34 34 34 33 33 30 27 27 28 25 24 24 24 23 22 23 24 24 24 23 22 22 23 23
57 56 56 55 54 53 53 52 51 52 52 53 53 52 52 52 53 53 53 52 51 49 47 45 45 45 46 45 46 45 45 45 43 43 42 42 42 42 42 42 42 43 45 46 45 45 45 43 39 38 36 36 35 35 34 34 34 34 34 35 35 35 35 35 34 34 34 34 32 28 26 26 27 26 25 25 24 24 23 24 25 25 24 23 22 23 24 24
57 57 57 56 55 54 53 52 52 51 52 53 53 52 52 52 53 53 53 53 52 50 48 47 46 45 46 46 46 46 46 45 44 43 42 42 42 42 42 42 42 43 45 46 45 46 46 44 40 37 36 36 36 36 35 35 35 35 34 34 35 35 36 35 34 34 35 33 31 28 26 26 27 28 27 25 25 25 25 26 26 25 24 24 24 24 24 24
49 51 52 53 54 54 53 52 51 51 51 52 52 52 52 52 52 53 53 53 52 51 49 48 47 47 46 46 46 47 46 45 44 44 43 42 43 42 42 42 42 43 45 46 46 47 46 44 40 36 36 37 37 37 36 35 35 34 33 34 35 36 36 34 34 35 35 33 31 29 28 27 28 29 28 26 26 27 27 27 26 26 25 25 25 25 24 23
43 44 45 46 49 50 51 51 51 50 50 50 51 51 51 51 51 51 52 52 52 52 51 49 48 47 46 46 46 46 46 45 45 44 43 43 43 43 43 43 43 44 45 46 47 47 47 44 40 37 37 39 39 38 36 36 35 34 33 33 34 35 35 34 35 36 36 34 32 30 28 29 30 31 30 27 27 29 29 28 27 26 26 27 28 26 24 24
41 41 41 41 43 45 47 48 48 48 49 49 49 49 50 50 50 50 51 52 51 51 51 50 48 46 46 46 46 46 44 44 44 44 43 43 43 42 42 43 43 44 45 46 46 46 44 40 37 37 38 39 38 37 37 37 36 35 33 34 35 35 35 36 37 38 37 36 34 31 29 30 31 33 31 29 30 31 30 29 28 27 28 29 29 27 24 23
41 40 40 40 40 41 43 44 45 46 47 47 47 47 48 48 49 50 50 51 51 51 50 49 49 47 46 47 47 46 44 43 44 43 42 42 42 42 42 43 43 44 44 44 44 43 40 36 35 37 38 38 38 37 38 38 37 36 34 34 35 35 35 37 38 38 38 37 35 32 31 32 33 34 33 31 32 32 31 30 29 29 29 29 29 26 23 21
40 40 39 39 39 40 41 41 42 43 44 45 45 45 45 46 48 48 49 50 50 49 48 48 47 45 45 47 48 47 45 43 43 42 41 41 40 41 42 42 43 43 43 42 42 41 40 37 36 35 37 39 38 38 38 39 38 37 35 35 36 35 36 38 38 39 39 37 35 32 32 33 35 36 34 33 33 33 32 31 30 29 29 29 27 25 22 21
39 39 38 38 38 39 39 40 41 42 42 43 44 43 44 44 46 46 47 47 48 48 47 47 44 43 45 46 45 45 44 42 42 42 41 40 40 40 41 41 42 41 41 41 41 41 41 38 36 36 37 39 38 37 38 39 39 38 36 35 37 36 36 38 38 38 39 37 34 32 32 34 36 36 36 35 34 34 33 31 30 30 29 28 26 24 23 22
38 38 37 37 37 38 38 39 40 41 41 43 42 42 42 42 43 43 43 44 45 45 45 45 42 42 44 43 41 42 42 41 42 42 41 40 41 41 41 41 41 40 40 40 41 42 41 38 37 37 38 39 39 37 37 38 39 38 36 36 37 35 36 37 38 38 38 36 32 32 34 35 37 37 36 36 35 34 33 32 31 30 29 27 25 24 22 21
35 36 36 35 36 36 37 39 40 40 41 42 41 40 40 40 41 40 40 42 42 41 42 42 41 41 43 42 40 39 37 39 41 41 40 40 40 41 41 41 40 39 39 39 39 39 37 36 36 36 37 38 37 36 36 37 38 37 35 36 36 35 36 37 38 37 38 36 32 32 35 37 38 37 36 36 35 34 33 32 31 30 28 27 25 24 22 21
32 33 33 34 35 35 37 38 39 40 41 40 39 38 38 38 38 38 39 39 38 38 40 40 40 42 42 41 40 38 36 38 39 38 39 40 41 41 40 39 39 39 39 37 36 35 34 34 35 36 37 37 34 34 36 36 36 35 35 35 36 36 38 39 38 38 38 36 33 33 35 38 39 38 37 37 36 35 33 32 31 30 28 27 25 24 23 22
29 30 31 33 34 34 36 37 38 40 40 39 37 36 36 36 36 37 39 38 35 36 38 38 39 41 41 40 40 39 39 40 39 38 39 40 40 41 39 38 38 39 40 38 36 36 36 36 37 38 39 39 36 35 36 36 35 35 34 34 35 37 39 40 39 39 39 38 36 35 37 39 41 40 39 38 37 35 34 33 31 30 29 28 26 25 24 23
25 27 28 30 32 33 35 37 38 39 38 36 35 35 35 35 36 38 37 34 32 33 35 37 38 39 39 38 38 40 41 41 40 40 42 41 41 41 41 41 41 41 41 39 38 38 37 38 39 38 38 39 38 37 37 37 37 36 35 35 36 38 41 41 41 41 42 41 38 38 39 41 42 41 40 39 37 35 34 33 32 30 30 29 28 27 26 24
20 22 23 26 29 31 35 37 38 37 36 34 33 33 34 36 38 38 35 32 31 31 33 36 37 38 37 35 35 37 40 41 40 40 41 41 41 41 41 42 42 44 43 42 40 38 36 36 36 36 37 38 38 38 38 38 39 38 37 37 39 41 43 43 43 43 44 43 40 40 41 42 43 42 41 39 37 36 35 35 33 31 31 31 30 29 27 25
14 16 18 22 27 31 35 37 36 34 33 33 33 33 35 37 36 35 33 34 32 30 34 36 35 35 35 34 35 35 37 38 39 40 39 38 38 37 38 39 40 41 40 38 38 37 36 36 35 35 37 39 39 38 38 38 39 39 38 39 41 43 44 44 44 44 44 43 42 41 41 42 42 41 40 39 38 37 37 36 34 33 33 32 31 29 28 27
10 12 15 22 28 31 34 36 35 34 33 33 34 35 37 37 34 34 34 33 32 32 36 38 37 35 34 33 35 36 37 37 37 38 38 38 38 38 38 38 39 39 37 34 35 35 35 36 34 33 34 36 37 37 36 35 36 37 37 38 40 41 41 41 41 42 43 43 42 41 40 41 41 41 39 38 38 38 37 36 35 34 34 32 31 29 28 28
10 11 16 24 28 29 32 33 34 34 34 35 36 36 36 35 34 36 35 33 31 33 37 39 39 38 35 34 34 35 36 36 37 37 38 38 38 38 37 37 38 38 36 35 35 35 34 33 32 31 31 32 33 35 35 34 35 36 36 36 38 39 38 38 38 39 41 41 42 41 41 41 41 40 38 36 37 38 37 36 35 34 33 31 30 30 30 29
13 14 20 27 26 27 29 30 33 34 34 34 33 33 34 34 36 37 36 34 32 33 38 39 38 38 37 37 36 36 35 35 35 36 37 36 35 35 34 34 35 34 34 34 34 34 34 32 31 32 32 32 33 34 34 33 34 35 36 35 35 36 38 38 39 39 40 42 42 42 43 42 41 40 38 36 36 37 36 36 35 33 32 32 32 32 31 29
15 17 25 28 25 25 27 31 35 35 35 32 29 31 34 36 38 36 35 35 32 33 37 39 39 38 38 38 37 37 36 35 34 34 35 35 35 35 34 34 33 32 31 32 33 33 33 32 32 33 34 34 34 35 34 32 32 33 33 32 33 35 37 39 40 41 42 43 43 43 43 43 42 42 39 36 35 36 36 35 34 33 33 33 32 32 30 28
19 20 26 28 25 24 26 31 34 33 33 33 31 35 37 39 39 36 36 34 30 35 39 39 40 38 37 38 37 37 36 35 35 34 33 34 35 35 35 34 33 32 32 32 32 33 33 33 33 33 33 34 34 34 33 32 31 30 28 29 32 35 37 38 40 42 42 44 44 44 44 44 44 43 41 37 36 37 36 35 34 34 34 33 33 32 32 30
20 20 23 26 25 24 25 31 32 30 33 34 34 38 39 39 39 37 37 32 28 36 41 39 40 39 37 36 35 35 35 34 33 33 33 35 35 35 35 34 32 32 32 32 32 33 34 34 34 34 34 33 33 34 32 32 32 31 29 29 31 34 35 37 38 40 40 42 44 44 44 45 44 44 41 39 38 38 38 37 36 36 36 35 35 34 33 31
21 20 21 22 22 23 27 31 31 31 33 34 35 38 39 40 38 35 35 30 26 35 40 38 40 40 38 36 34 34 33 32 31 31 31 32 33 34 35 34 32 32 32 33 33 34 34 35 35 35 34 33 33 33 31 30 31 32 33 34 34 34 36 36 36 38 39 40 40 41 41 41 41 41 40 38 38 38 38 38 37 37 37 36 35 34 32 30
23 22 22 22 21 24 29 31 30 30 32 34 37 39 38 39 34 30 32 31 27 31 35 37 39 40 40 38 36 35 34 33 31 30 29 30 31 33 34 34 34 32 32 33 34 35 35 35 35 35 35 34 33 31 29 29 29 30 31 32 33 34 35 35 35 36 37 37 38 38 37 36 36 37 36 35 36 36 36 36 35 36 36 35 34 32 30 29
24 22 23 24 25 27 30 31 29 29 33 38 39 38 37 35 27 24 29 31 30 30 31 34 37 38 39 39 38 37 36 36 33 31 29 29 30 31 32 33 34 33 33 33 34 35 36 36 36 35 35 34 33 31 29 29 29 29 30 30 31 31 32 33 33 33 34 35 36 36 36 35 35 35 32 31 32 31 30 31 31 32 33 32 31 30 29 29
23 22 23 25 27 29 30 29 29 31 35 38 37 35 35 29 22 22 26 29 31 31 31 33 36 38 39 40 40 39 37 36 33 31 30 29 29 30 31 33 33 34 35 34 34 35 36 37 37 36 35 34 33 32 31 30 30 30 31 31 31 31 31 32 32 32 33 33 34 34 35 34 33 32 29 26 26 25 26 27 28 29 30 29 29 28 27 27
21 21 22 24 27 28 28 28 30 33 35 35 34 32 29 23 21 23 24 27 30 29 29 34 37 38 39 40 39 39 37 36 34 32 30 29 29 29 31 33 33 35 36 35 34 35 36 38 38 37 37 36 36 35 34 33 33 33 33 32 32 31 31 31 31 31 32 33 33 32 32 31 28 27 25 23 22 22 23 25 26 28 29 28 28 27 26 25
21 22 23 25 26 26 27 28 30 32 33 32 31 27 24 23 23 22 23 26 28 27 30 36 39 39 40 39 38 38 37 35 34 33 31 30 30 30 31 33 34 35 35 35 35 35 36 37 37 37 37 36 37 37 36 35 34 33 33 32 31 30 29 29 28 29 30 30 31 30 29 27 24 23 23 22 21 21 22 23 24 25 26 26 25 25 24 23
21 23 25 26 27 27 27 27 29 31 30 27 27 26 26 26 23 21 23 25 25 26 31 35 37 38 40 40 39 38 37 34 32 31 31 30 30 30 31 32 34 35 35 35 36 36 37 37 37 36 35 33 33 33 33 32 31 31 30 29 29 28 27 26 26 27 26 26 27 28 27 26 23 21 21 21 21 21 21 21 22 23 23 22 22 23 23 23
21 24 25 26 27 28 28 28 29 29 27 26 28 28 29 27 25 26 28 27 26 30 33 33 32 34 36 38 38 38 36 33 30 28 29 29 29 29 30 31 32 33 35 35 35 36 37 37 37 37 35 33 32 31 31 30 29 29 28 28 27 26 25 25 24 25 25 24 24 24 25 25 24 23 22 22 22 22 21 21 21 21 21 20 21 21 22 23
22 24 26 27 29 30 32 32 30 27 28 30 31 31 30 28 27 29 30 28 29 33 32 30 30 30 32 35 35 34 33 32 30 27 26 26 26 26 27 29 31 32 33 33 34 34 35 35 36 36 35 35 33 33 32 31 31 30 28 27 26 25 24 23 22 22 23 23 23 23 24 25 24 24 24 23 23 23 22 21 21 21 21 20 21 22 22 23
22 25 28 29 32 34 35 33 30 29 31 32 31 31 31 30 29 29 29 25 26 29 29 27 30 31 32 33 32 30 30 30 30 28 26 25 25 25 24 26 28 29 30 31 32 32 32 33 33 34 34 35 34 34 33 33 32 31 30 29 28 27 26 25 23 23 23 23 23 23 23 23 23 23 24 24 24 24 24 24 24 23 23 23 24 24 25 25
22 26 30 33 37 36 33 31 30 31 31 30 30 32 33 32 30 28 26 23 22 27 27 26 30 30 27 27 26 25 26 27 26 25 24 23 23 24 23 24 25 26 27 28 29 30 31 32 32 32 32 33 34 34 34 33 33 32 31 31 31 30 28 27 26 26 25 24 23 23 23 23 23 23 24 24 25 26 26 26 26 25 24 25 25 26 26 26
24 31 34 36 37 33 29 28 27 28 28 27 29 32 34 33 31 28 26 24 24 26 25 23 26 25 22 21 22 23 24 25 25 24 23 23 22 22 21 21 22 23 24 25 26 27 29 30 31 31 30 31 32 33 34 34 33 32 31 31 31 31 30 29 29 29 28 26 24 25 25 25 25 26 26 26 26 26 26 26 26 26 25 26 26 26 27 27
29 36 37 36 34 30 26 25 23 22 23 23 25 30 32 32 31 28 26 25 24 23 21 21 21 21 20 20 21 22 23 23 24 24 24 23 23 23 22 21 21 21 21 22 24 24 25 27 28 28 29 29 30 31 32 33 34 33 33 32 31 31 30 30 29 29 29 27 26 27 28 29 28 27 26 26 26 27 27 27 28 28 27 27 27 27 28 27
Wind_Direction
252 252 251 251 251 251 251 251 251 251 251 251 251 250 251 251 251 250 249 248 248 249 251 253 254 252 247 244 243 243 243 243 242 242 243 242 242 242 243 243 242 243 242 241 239 236 232 227 222 217 215 212 210 207 205 205 206 206 205 204 206 209 211 215 216 218 221 225 228 231 233 236 238 238 239 240 241 243 246 249 252 254 258 261 258 257 259 261
252 252 252 251 251 251 251 251 251 251 251 250 250 250 250 250 250 250 250 249 247 247 247 249 251 252 250 246 244 242 242 242 240 240 241 242 242 242 241 242 240 240 241 239 238 235 232 227 221 216 214 211 209 207 205 204 204 205 204 204 207 209 212 215 216 218 221 224 227 230 232 235 238 239 240 242 244 246 249 252 254 257 258 258 256 258 260 261
253 252 252 252 251 251 251 251 251 250 250 250 250 250 250 250 250 250 249 249 248 246 245 246 247 249 250 248 245 243 241 241 239 238 241 241 241 240 239 240 240 240 240 239 238 236 233 227 221 217 214 212 209 207 206 204 204 204 203 205 208 209 212 214 216 218 220 222 225 228 231 234 237 239 241 244 247 250 253 255 257 258 257 256 258 261 261 260
253 252 252 252 252 251 251 251 251 250 250 250 250 250 250 249 249 249 249 249 248 247 245 244 244 246 247 248 246 244 243 241 238 237 239 240 239 238 238 239 239 239 239 239 238 235 232 226 220 217 215 213 210 208 206 205 205 203 203 206 208 211 213 214 216 218 220 221 223 226 229 233 236 239 242 245 250 253 256 257 259 261 261 262 263 262 260 260
253 252 252 252 251 251 251 251 251 251 250 250 250 250 249 249 249 249 249 248 248 247 246 244 242 242 244 246 246 245 244 242 238 236 238 238 237 236 236 237 237 237 237 238 237 235 231 226 221 216 215 214 212 209 207 206 205 204 204 207 209 213 215 214 216 219 220 222 224 226 229 232 236 240 243 247 251 254 256 259 263 267 267 266 263 260 259 260
251 251 251 251 251 251 251 250 250 250 250 250 249 249 249 249 248 248 248 248 247 246 246 245 242 241 242 243 245 245 245 243 240 237 237 237 237 235 234 235 236 236 235 236 235 234 232 227 222 218 215 213 211 210 207 205 205 206 206 208 211 213 215 216 217 220 221 224 225 227 230 232 235 239 243 247 250 253 257 263 270 271 268 264 260 257 258 260
251 250 250 250 250 250 250 250 250 250 249 249 249 249 249 249 248 248 247 247 247 246 245 245 243 242 241 241 243 244 245 246 242 239 237 236 236 235 233 233 234 234 233 233 233 232 230 228 224 220 216 213 212 210 207 204 204 207 209 210 213 214 216 217 218 221 222 224 226 229 232 233 235 238 241 246 249 253 259 267 269 266 262 260 259 258 259 261
252 251 251 250 250 249 250 250 250 250 250 249 249 249 249 248 248 247 247 246 246 246 245 244 244 243 241 240 241 242 244 246 243 241 239 237 235 234 232 231 232 233 231 231 231 231 230 228 225 221 218 215 213 212 208 205 204 206 210 212 213 214 216 217 219 221 223 224 226 229 231 234 236 238 242 246 251 255 260 262 260 258 257 257 259 260 261 264
254 253 253 252 251 251 250 250 250 250 250 250 249 249 249 248 247 247 246 245 245 245 245 244 243 243 242 241 240 241 242 244 244 243 241 238 235 233 232 230 230 231 230 229 229 230 229 228 227 224 221 217 215 213 210 207 205 205 210 213 213 215 216 218 220 222 224 225 226 229 231 233 236 239 242 246 250 255 255 255 255 255 255 257 259 261 263 266
256 255 254 254 253 253 252 251 250 250 250 250 249 249 249 248 247 246 246 245 244 244 244 243 243 242 242 241 240 240 241 242 244 243 241 239 236 233 231 229 229 229 229 228 228 228 228 227 227 225 223 219 216 215 213 211 208 208 211 214 214 215 217 218 221 223 225 226 227 230 232 234 236 239 242 243 247 251 253 254 255 256 259 261 261 263 264 265
256 255 255 254 254 253 253 252 251 250 249 249 249 249 248 247 247 246 245 244 243 242 242 242 242 242 241 241 241 240 240 240 242 242 241 240 238 234 231 229 228 228 229 228 227 227 227 227 227 227 225 222 219 217 216 215 213 211 213 215 215 216 217 218 221 222 224 226 227 230 234 235 237 240 243 245 248 250 253 254 257 261 263 262 262 262 261 261
257 256 255 254 254 253 253 252 251 251 250 249 248 248 247 247 246 245 244 244 242 242 241 241 241 241 241 240 241 240 239 239 240 241 242 241 240 236 232 229 227 228 228 228 226 226 227 227 227 227 226 225 222 220 219 218 216 215 215 216 216 216 217 218 221 222 224 226 226 229 234 236 237 240 243 247 249 250 253 255 256 259 258 256 255 255 256 259
258 257 256 255 254 253 253 252 251 250 250 249 247 247 246 246 245 244 244 243 242 241 240 240 240 240 240 239 240 240 239 239 240 241 241 242 241 239 234 230 227 227 228 228 227 226 226 227 227 227 226 226 224 222 220 220 219 218 218 218 218 217 218 219 220 221 223 226 226 229 233 235 237 240 244 245 245 248 251 252 252 250 246 246 247 249 254 259
258 257 257 256 255 254 253 252 251 250 249 248 246 245 245 244 244 244 243 242 242 241 240 239 238 239 239 239 240 240 239 238 239 239 240 240 240 240 236 231 227 226 226 227 227 225 225 226 226 226 226 226 226 224 222 221 220 220 220 219 219 219 219 219 220 221 223 225 226 230 234 236 238 240 243 243 242 245 246 245 243 239 238 240 244 248 254 258
258 257 256 256 255 254 253 252 252 250 249 247 245 244 243 243 242 242 241 241 241 240 240 238 237 237 237 237 239 239 238 237 237 238 238 238 238 238 235 231 227 224 224 225 226 225 224 224 225 226 226 226 226 225 224 223 222 221 222 221 220 220 219 218 219 221 223 225 227 231 234 237 239 240 239 238 241 243 243 240 235 231 232 236 242 247 252 256
257 256 255 255 254 253 252 252 251 250 249 247 245 243 242 241 240 240 240 239 239 239 238 237 236 236 236 236 237 238 237 236 235 236 237 237 237 236 235 232 227 224 223 224 225 225 224 224 224 224 225 225 225 225 224 224 223 221 222 222 221 220 220 219 219 221 223 225 228 231 234 236 238 237 235 234 237 241 240 236 233 230 231 235 240 244 249 256
256 255 254 253 253 252 251 251 250 249 248 247 245 243 241 239 239 238 238 237 237 237 237 236 235 235 234 234 235 235 236 235 234 235 235 236 236 235 234 232 228 224 223 223 224 225 225 223 223 224 224 224 224 224 224 224 224 222 222 223 222 222 222 221 221 222 223 226 229 231 231 235 239 237 235 236 237 239 236 232 232 233 235 238 242 245 250 256
256 255 253 252 252 251 250 250 249 248 247 246 244 243 240 238 237 237 236 236 235 235 235 235 234 234 233 233 233 233 234 235 234 234 234 235 235 234 233 231 228 225 223 222 223 225 225 224 223 223 224 224 224 224 224 225 225 224 222 223 223 224 224 223 222 223 224 226 228 229 225 230 239 238 235 237 238 237 233 231 231 234 237 241 245 248 253 258
257 256 254 252 251 250 249 249 248 246 245 244 243 242 240 238 236 236 235 235 234 234 234 233 233 233 232 231 231 232 233 233 233 233 233 234 234 234 233 231 228 225 223 222 222 223 225 225 223 223 224 225 225 224 224 226 226 225 223 223 224 225 225 224 224 224 225 226 226 224 219 225 236 238 235 237 238 236 232 229 230 233 237 242 246 249 254 258
258 256 254 252 250 249 248 248 247 245 244 243 242 241 239 237 236 235 234 234 233 233 232 232 231 231 231 230 230 230 230 231 231 231 231 232 232 232 232 230 228 225 223 222 222 223 225 225 223 223 225 227 226 225 225 226 226 225 222 221 222 224 226 226 225 226 227 225 223 219 216 222 233 238 236 236 237 236 231 228 230 233 238 243 248 250 254 256
256 255 253 251 249 248 247 247 246 244 243 242 240 239 238 237 235 234 233 233 232 231 231 230 230 230 230 229 229 229 229 229 229 229 229 230 230 230 230 228 227 225 223 222 222 223 224 225 224 223 225 226 226 225 225 226 227 226 223 221 221 222 224 225 225 227 228 225 220 216 215 221 231 237 236 235 236 235 231 230 231 235 239 244 246 248 251 254
255 254 253 251 248 246 245 245 244 243 242 240 239 238 237 236 235 233 232 232 232 231 230 229 229 229 229 228 228 229 229 228 228 228 228 228 229 229 228 227 225 223 222 222 223 223 224 224 223 223 225 227 226 225 225 225 226 226 223 220 220 220 221 222 223 226 227 223 219 216 216 222 229 235 235 233 234 233 231 231 232 236 240 243 244 246 249 254
255 253 252 250 247 245 244 243 242 241 240 239 238 237 235 234 233 232 231 231 230 229 228 228 227 226 226 226 227 227 226 225 226 227 227 227 227 227 226 226 224 221 220 221 223 224 226 227 226 225 225 227 227 225 225 226 225 224 221 217 217 217 217 219 221 224 225 222 220 217 217 223 229 234 234 232 231 231 232 232 234 238 241 244 247 249 253 258
255 253 251 249 246 244 243 241 240 239 238 237 236 235 234 233 232 230 230 229 229 228 227 226 225 224 223 223 225 224 222 222 224 225 226 226 225 224 224 224 222 221 221 221 222 224 226 227 228 228 228 228 227 226 225 226 225 223 220 216 215 214 215 217 220 223 225 223 220 219 219 223 228 232 233 231 230 231 232 234 236 239 243 246 250 254 257 261
254 253 250 248 245 243 241 240 238 237 236 236 234 232 231 230 230 228 228 228 227 227 226 225 224 221 220 223 224 222 219 219 220 222 223 223 223 222 221 221 221 221 220 220 222 224 224 225 225 227 229 229 228 226 224 225 226 223 219 216 213 211 212 216 219 222 224 224 221 220 222 225 227 230 231 229 230 232 234 236 239 241 244 248 252 256 259 259
254 252 249 247 244 241 239 237 236 235 234 233 232 230 229 227 227 226 226 226 225 225 224 223 221 218 219 222 222 219 217 216 217 218 219 219 218 218 219 219 220 219 219 219 221 223 224 225 225 226 228 228 228 226 224 224 225 223 218 215 213 211 211 214 218 221 224 224 222 220 223 226 228 229 228 228 229 232 235 237 240 243 246 250 254 257 259 258
252 250 248 244 241 238 235 233 233 232 231 231 229 227 225 224 224 224 223 223 223 222 222 220 216 215 217 218 216 216 215 214 214 215 215 215 214 214 215 215 216 217 217 217 219 221 223 224 225 226 227 228 227 226 225 225 225 222 217 214 213 210 210 213 216 220 223 223 220 219 222 224 226 227 226 226 228 231 235 239 242 246 249 251 255 256 255 256
249 247 245 241 238 234 230 229 229 227 227 227 225 223 221 219 220 219 218 220 221 219 219 217 212 211 214 212 210 212 211 212 214 213 211 211 211 212 213 213 212 214 215 217 219 220 222 225 226 226 228 229 227 224 223 224 224 221 215 213 211 209 209 212 216 219 223 223 218 218 222 221 222 224 225 226 229 232 236 240 244 248 251 253 256 258 258 260
245 243 240 237 233 229 225 223 222 221 221 221 219 217 215 214 214 213 213 215 216 215 215 213 209 209 210 208 206 203 202 207 210 210 210 209 208 208 210 211 210 210 211 213 218 220 221 224 225 226 226 226 223 220 220 222 222 219 214 212 209 208 210 213 216 219 223 223 218 217 221 221 220 222 224 227 229 232 236 241 244 248 251 254 256 259 263 266
239 236 234 230 227 222 218 216 215 214 214 214 211 209 208 208 207 207 209 209 210 211 209 208 205 205 206 205 202 198 197 201 203 203 207 209 209 207 206 207 208 210 210 209 212 215 216 218 221 223 223 221 219 218 217 218 219 216 213 210 208 208 211 214 216 220 222 223 219 217 221 222 222 222 224 227 231 233 235 239 243 247 251 254 255 258 263 265
232 229 226 223 219 214 210 207 206 207 208 205 202 202 201 200 200 201 203 202 205 206 202 201 200 201 203 201 199 197 196 198 199 201 204 206 207 207 207 206 206 208 209 209 211 212 213 215 217 219 220 219 218 217 216 216 215 214 210 207 205 207 211 213 215 219 222 224 221 219 221 223 224 224 225 228 231 234 236 239 242 246 251 254 255 259 264 266
221 217 215 214 210 205 200 197 199 202 200 195 194 194 193 193 196 197 194 191 196 199 194 194 195 196 196 195 195 198 198 198 197 200 203 205 205 206 208 209 209 209 209 209 210 211 213 216 217 217 217 218 217 216 216 215 214 212 208 205 204 206 210 212 214 218 221 223 222 221 221 223 225 225 226 228 231 235 239 242 244 246 250 253 255 261 267 271
203 203 204 202 196 193 191 190 193 194 189 185 187 186 186 190 191 188 184 183 187 190 188 187 188 189 190 188 189 194 199 200 199 200 202 203 204 206 207 209 211 212 212 211 212 211 212 215 216 216 217 217 216 216 216 216 215 213 210 206 206 209 211 212 214 217 221 221 221 222 222 225 227 227 228 228 231 236 240 243 245 247 249 251 256 263 269 274
178 197 203 194 186 184 185 185 186 185 181 182 184 183 185 186 181 177 177 179 181 183 182 181 180 183 185 185 186 190 195 198 200 202 204 203 202 203 205 208 210 211 209 210 214 215 216 217 216 214 215 216 216 216 216 217 216 215 213 210 211 214 216 217 217 219 222 222 222 223 224 226 229 230 230 229 231 236 240 243 246 247 249 253 259 265 271 275
170 189 186 177 172 174 178 180 180 179 179 181 181 183 183 179 174 172 173 176 181 181 179 178 177 178 179 179 185 192 194 196 197 200 204 207 206 204 204 206 209 210 207 206 210 214 216 219 217 215 215 215 215 216 216 216 215 214 214 213 213 215 217 220 221 222 223 223 222 224 226 228 230 232 232 229 231 236 240 244 247 249 253 257 262 268 273 276
172 175 168 163 163 169 177 180 178 176 178 178 177 179 179 174 172 172 171 175 179 179 177 177 175 176 178 178 183 190 193 195 198 199 201 205 206 207 207 208 210 211 209 208 210 212 213 214 214 214 214 214 215 217 216 215 215 216 215 214 214 215 215 216 220 223 224 224 224 226 229 231 233 235 235 231 233 237 242 247 250 253 257 261 265 270 274 276
166 163 163 162 162 170 178 179 176 176 180 179 172 171 172 172 172 172 171 174 178 178 177 178 176 176 179 181 185 189 191 192 197 201 202 202 203 204 204 206 208 208 208 209 210 211 213 214 213 213 213 214 215 217 216 212 214 217 218 215 214 216 217 217 218 221 223 225 227 229 231 234 236 238 238 236 238 242 246 249 251 254 258 261 265 269 270 274
156 156 163 166 169 176 178 176 176 179 182 178 168 166 169 170 170 170 168 169 177 182 179 178 179 178 179 184 187 189 190 191 194 198 201 203 203 202 201 201 202 202 204 206 207 208 209 212 213 212 212 213 215 217 216 211 209 212 215 217 216 217 219 220 221 223 225 226 228 230 232 235 238 240 241 239 240 244 248 250 251 252 255 259 263 267 270 274
154 155 162 168 174 179 177 174 175 178 178 173 165 163 166 169 170 172 172 169 173 179 178 177 180 181 181 186 190 191 191 193 193 195 198 201 201 201 201 199 197 198 200 201 205 206 206 208 210 210 209 210 212 214 214 210 207 205 205 209 215 218 221 223 224 226 228 229 231 232 234 236 239 242 243 243 244 246 248 249 250 252 255 259 264 268 271 273
155 157 162 167 169 168 169 172 171 172 172 168 162 163 167 171 172 175 180 180 174 174 177 178 181 183 183 185 191 194 193 194 195 196 198 199 199 200 200 197 193 194 197 198 202 204 204 205 206 207 205 205 208 210 210 208 208 207 206 206 209 214 218 222 224 227 230 232 234 236 237 239 242 245 247 248 249 250 250 251 252 254 257 261 265 268 270 270
156 159 166 170 166 159 162 167 166 166 167 165 164 166 170 172 172 175 183 187 183 179 180 181 183 185 184 184 190 194 193 193 194 195 195 196 197 197 196 193 190 192 195 197 199 200 201 202 203 204 203 202 205 206 205 204 205 208 211 212 212 214 217 221 224 228 231 234 236 239 240 241 242 245 247 249 250 251 252 253 254 257 259 262 265 267 267 267
152 156 161 164 162 159 160 164 165 165 164 164 167 169 171 172 173 177 182 186 188 187 188 187 186 188 187 186 188 192 191 190 190 191 191 192 193 194 193 192 190 190 193 196 198 198 198 198 198 199 199 199 201 203 202 202 203 206 209 213 217 219 221 224 227 231 235 238 240 243 245 244 244 245 245 247 248 250 251 252 254 256 259 261 263 264 265 265
152 157 157 157 159 159 160 162 163 164 164 166 168 169 170 173 178 182 183 187 190 192 193 190 187 190 190 188 188 190 189 187 186 186 186 187 188 189 190 191 191 190 190 193 196 197 197 196 196 197 197 197 200 202 203 204 206 209 212 215 220 224 228 230 233 236 239 243 244 246 248 248 248 247 246 247 249 249 250 250 251 253 256 259 260 261 262 263
154 157 157 157 157 158 160 160 160 163 165 167 167 167 169 176 185 187 187 190 190 190 191 187 185 188 190 188 186 187 186 185 182 181 181 183 185 186 188 190 193 193 190 191 195 197 198 197 197 198 198 198 200 204 206 208 210 213 216 220 225 229 233 235 236 238 240 243 245 246 246 246 245 245 245 246 247 248 248 249 250 252 255 257 257 258 259 260
155 156 156 157 158 158 159 159 159 163 164 165 166 166 168 178 187 189 189 190 188 188 188 184 183 185 186 186 184 183 183 181 179 178 177 179 183 183 186 190 193 195 193 191 194 197 201 202 202 203 204 205 206 207 209 211 213 216 219 223 226 229 232 234 237 239 240 243 246 247 247 246 243 241 242 243 245 247 247 248 248 250 251 252 252 253 255 258
155 153 151 152 155 155 155 156 157 157 157 161 165 159 154 160 166 169 178 185 185 182 179 178 180 183 183 182 181 179 178 176 176 178 177 178 182 182 184 189 192 194 194 193 194 197 201 205 207 207 208 210 213 214 214 214 216 218 221 224 227 229 231 233 237 239 241 242 246 248 248 247 246 244 244 245 247 247 247 247 247 247 248 249 251 253 256 258
150 151 148 148 150 149 149 148 147 148 150 155 156 146 139 139 137 139 155 168 167 164 166 168 174 179 180 178 176 174 173 172 175 178 177 177 181 182 184 187 191 194 195 194 196 198 200 204 207 208 208 208 210 212 215 217 217 220 223 225 229 232 235 237 239 241 242 242 243 246 247 247 248 249 248 247 247 247 247 247 248 249 249 251 254 257 259 260
145 147 145 144 145 144 142 140 138 143 148 148 145 137 133 130 123 126 138 148 151 155 162 165 165 167 169 169 169 169 171 173 173 175 177 178 179 182 185 186 188 193 195 195 198 200 201 203 206 208 209 210 211 212 215 217 219 221 223 224 228 232 236 238 239 240 241 241 240 243 246 247 248 249 249 248 247 247 248 249 251 252 254 256 258 260 261 262
139 140 140 141 140 137 135 133 135 143 148 147 143 136 129 124 120 124 129 131 138 150 157 160 159 159 163 167 167 167 172 176 175 174 177 179 179 181 185 186 186 190 194 197 200 202 203 204 207 209 210 212 215 216 217 219 221 223 225 226 229 230 232 236 238 239 241 241 240 242 245 248 250 251 253 252 252 252 252 253 255 256 258 260 261 261 260 262
136 138 137 135 133 131 129 129 136 145 150 152 150 139 128 125 125 128 129 126 133 144 151 158 161 160 162 165 162 160 166 172 175 177 179 180 182 182 183 186 188 189 192 196 200 203 205 206 209 210 211 213 216 218 220 221 224 226 229 231 232 233 233 234 237 241 242 242 241 243 247 250 252 254 255 256 256 256 256 256 257 258 259 261 261 260 259 260
136 136 133 132 131 129 129 133 141 148 152 157 155 143 134 133 134 134 135 134 136 141 146 155 161 159 158 157 154 155 163 168 171 175 177 177 180 182 182 184 187 190 193 195 198 202 205 208 211 213 214 216 218 220 222 224 226 229 231 233 234 235 237 237 239 242 245 245 243 244 248 251 253 254 254 255 256 257 259 260 261 262 263 263 262 260 259 259
137 134 131 130 131 131 133 138 146 153 155 158 156 147 142 142 142 142 143 144 145 145 144 147 150 153 158 159 157 161 167 169 170 172 174 174 177 178 178 181 185 187 191 194 199 202 203 206 212 214 216 219 221 223 225 226 228 229 230 231 233 235 238 240 240 243 247 250 248 247 248 250 252 253 254 255 257 259 261 264 264 266 266 265 263 261 260 260
Height
5718 5719 5720 5721 5723 5724 5726 5728 5730 5731 5733 5735 5736 5738 5740 5742 5743 5745 5747 5748 5750 5752 5754 5756 5757 5759 5760 5762 5764 5767 5770 5772 5775 5778 5776 5776 5780 5783 5784 5786 5788 5789 5790 5792 5794 5796 5798 5800 5802 5804 5805 5807 5809 5811 5813 5816 5819 5821 5823 5825 5827 5828 5829 5830 5832 5833 5835 5836 5838 5840 5841 5842 5844 5845 5846 5847 5847 5848 5848 5849 5850 5850 5850 5851 5853 5854 5855 5855
5712 5713 5715 5716 5717 5719 5720 5722 5724 5726 5728 5729 5731 5733 5735 5737 5738 5740 5742 5744 5746 5748 5750 5752 5754 5756 5757 5759 5760 5763 5766 5768 5772 5773 5771 5774 5778 5780 5782 5783 5785 5786 5787 5789 5791 5793 5795 5797 5799 5801 5803 5805 5807 5809 5811 5814 5817 5819 5821 5823 5824 5825 5826 5828 5829 5831 5833 5834 5836 5838 5839 5840 5841 5843 5844 5844 5845 5846 5846 5847 5848 5848 5848 5849 5851 5852 5853 5852
5706 5708 5709 5710 5712 5713 5715 5716 5718 5720 5722 5724 5726 5728 5730 5731 5733 5735 5737 5740 5742 5744 5746 5748 5751 5753 5754 5756 5757 5759 5762 5764 5768 5769 5768 5772 5774 5776 5779 5780 5782 5783 5784 5787 5789 5791 5793 5795 5797 5799 5801 5803 5805 5807 5809 5812 5814 5817 5819 5821 5821 5822 5823 5825 5827 5829 5831 5832 5834 5836 5837 5838 5839 5841 5842 5842 5843 5844 5844 5845 5846 5846 5846 5847 5849 5850 5850 5850
5701 5702 5703 5705 5706 5708 5709 5711 5713 5714 5716 5718 5720 5722 5724 5726 5728 5730 5732 5735 5737 5739 5742 5744 5747 5749 5751 5753 5754 5756 5758 5761 5764 5765 5766 5768 5770 5774 5776 5777 5779 5780 5782 5784 5786 5789 5790 5792 5795 5797 5799 5801 5803 5805 5807 5810 5812 5815 5817 5818 5818 5819 5820 5822 5825 5826 5828 5830 5832 5834 5835 5836 5837 5839 5840 5840 5841 5842 5842 5843 5844 5844 5845 5846 5847 5847 5847 5847
5695 5696 5698 5699 5700 5702 5703 5705 5707 5709 5711 5713 5715 5717 5719 5721 5723 5725 5727 5730 5732 5735 5737 5740 5743 5745 5747 5749 5751 5754 5755 5757 5759 5761 5763 5764 5767 5771 5773 5774 5776 5777 5780 5782 5784 5786 5788 5790 5792 5794 5796 5799 5801 5803 5805 5808 5810 5812 5814 5814 5815 5816 5818 5820 5822 5824 5826 5828 5830 5832 5833 5834 5836 5837 5838 5838 5839 5840 5840 5842 5843 5843 5843 5845 5845 5845 5845 5845
5689 5690 5692 5693 5695 5696 5698 5700 5701 5703 5705 5707 5709 5711 5713 5715 5717 5720 5722 5725 5727 5730 5733 5736 5738 5741 5743 5746 5748 5751 5752 5754 5756 5758 5759 5761 5764 5767 5769 5771 5773 5775 5777 5779 5781 5783 5785 5787 5789 5792 5794 5796 5798 5800 5802 5805 5807 5809 5810 5811 5812 5814 5816 5818 5820 5822 5824 5826 5828 5830 5831 5833 5834 5835 5836 5837 5837 5838 5839 5840 5841 5841 5842 5842 5842 5842 5843 5843
5683 5684 5686 5687 5689 5690 5692 5694 5696 5697 5699 5701 5703 5705 5707 5710 5712 5714 5717 5720 5722 5725 5728 5731 5734 5736 5739 5742 5745 5747 5750 5751 5752 5754 5756 5757 5760 5763 5766 5768 5770 5772 5774 5776 5778 5780 5782 5785 5787 5789 5791 5793 5795 5797 5799 5801 5804 5806 5808 5809 5810 5812 5814 5816 5818 5820 5822 5824 5826 5828 5829 5830 5832 5833 5834 5835 5835 5836 5837 5838 5839 5839 5839 5839 5839 5840 5840 5841
5678 5678 5680 5681 5683 5684 5686 5688 5690 5692 5693 5695 5697 5699 5702 5704 5706 5709 5711 5714 5717 5720 5723 5726 5729 5732 5735 5738 5740 5744 5746 5746 5748 5751 5753 5755 5757 5759 5762 5765 5767 5769 5771 5773 5775 5777 5779 5782 5784 5786 5788 5790 5792 5794 5796 5799 5801 5803 5805 5806 5808 5810 5811 5814 5816 5818 5820 5822 5824 5825 5827 5828 5829 5831 5832 5832 5833 5834 5835 5836 5837 5837 5837 5837 5837 5837 5838 5839
5671 5673 5674 5675 5677 5678 5680 5682 5684 5686 5688 5690 5692 5694 5696 5698 5700 5703 5706 5709 5712 5715 5717 5721 5724 5727 5730 5734 5736 5740 5741 5741 5745 5749 5750 5751 5753 5755 5758 5762 5764 5765 5768 5770 5772 5775 5777 5779 5781 5783 5786 5788 5790 5792 5794 5796 5799 5800 5801 5803 5805 5807 5809 5812 5814 5816 5818 5820 5822 5823 5824 5826 5827 5829 5829 5829 5830 5832 5834 5835 5835 5835 5835 5835 5835 5835 5836 5837
5665 5666 5668 5669 5670 5672 5674 5676 5678 5680 5682 5684 5686 5688 5690 5692 5695 5697 5700 5703 5706 5709 5712 5716 5719 5722 5726 5729 5732 5735 5736 5738 5741 5744 5746 5748 5749 5751 5754 5757 5760 5762 5764 5767 5770 5772 5773 5775 5778 5780 5783 5786 5788 5790 5792 5794 5796 5797 5798 5800 5802 5805 5808 5810 5812 5814 5816 5817 5819 5820 5822 5823 5825 5826 5826 5826 5828 5831 5832 5833 5833 5833 5833 5834 5833 5834 5834 5835
5658 5660 5661 5663 5664 5666 5668 5670 5672 5674 5676 5678 5680 5682 5684 5686 5689 5692 5694 5697 5701 5703 5707 5711 5714 5718 5721 5724 5728 5730 5731 5734 5736 5739 5742 5744 5746 5748 5750 5753 5756 5759 5761 5764 5766 5768 5770 5773 5775 5778 5781 5783 5786 5788 5790 5792 5794 5795 5796 5798 5801 5803 5806 5808 5809 5811 5813 5815 5816 5818 5819 5821 5822 5823 5822 5824 5827 5829 5829 5831 5831 5831 5831 5831 5831 5832 5833 5833
5651 5653 5654 5656 5657 5659 5661 5663 5666 5668 5670 5672 5674 5676 5678 5681 5683 5686 5688 5691 5695 5698 5702 5706 5709 5713 5716 5720 5723 5723 5726 5729 5732 5735 5738 5740 5742 5744 5747 5750 5753 5756 5758 5761 5763 5765 5767 5770 5773 5775 5778 5781 5783 5786 5787 5789 5791 5793 5794 5796 5799 5801 5803 5805 5806 5808 5810 5812 5814 5816 5817 5818 5819 5818 5819 5823 5825 5826 5827 5829 5829 5829 5829 5829 5829 5830 5830 5831
5645 5646 5647 5649 5651 5653 5654 5657 5659 5661 5664 5666 5668 5670 5672 5675 5678 5680 5683 5686 5689 5692 5696 5700 5704 5707 5711 5716 5717 5718 5722 5726 5728 5731 5733 5736 5739 5741 5744 5747 5750 5753 5755 5757 5759 5762 5765 5767 5770 5772 5775 5778 5780 5783 5785 5787 5789 5791 5792 5794 5797 5799 5800 5802 5804 5806 5808 5809 5811 5813 5814 5815 5815 5816 5818 5821 5823 5823 5825 5826 5827 5827 5826 5826 5827 5828 5828 5829
5637 5639 5640 5642 5644 5646 5648 5650 5652 5655 5657 5659 5661 5664 5666 5669 5672 5675 5677 5680 5683 5687 5690 5694 5699 5702 5706 5711 5711 5713 5718 5721 5724 5726 5728 5732 5735 5738 5741 5743 5746 5749 5751 5753 5756 5758 5761 5764 5767 5770 5772 5775 5777 5780 5782 5784 5787 5788 5790 5792 5794 5796 5797 5799 5801 5803 5805 5807 5809 5810 5811 5812 5813 5815 5818 5819 5820 5821 5822 5824 5825 5825 5824 5824 5825 5826 5827 5827
5630 5631 5633 5634 5636 5638 5641 5643 5645 5648 5650 5652 5655 5657 5660 5663 5666 5669 5672 5675 5678 5681 5685 5689 5693 5696 5702 5705 5705 5709 5714 5717 5718 5720 5723 5727 5730 5733 5736 5739 5741 5744 5747 5749 5752 5755 5758 5761 5764 5766 5769 5772 5774 5777 5780 5782 5784 5786 5788 5790 5792 5793 5794 5796 5798 5800 5802 5804 5806 5807 5809 5810 5811 5814 5816 5817 5818 5819 5820 5822 5822 5822 5822 5822 5823 5824 5825 5825
5622 5623 5625 5627 5629 5631 5633 5636 5638 5640 5643 5645 5648 5651 5654 5657 5660 5663 5666 5669 5672 5676 5679 5683 5687 5691 5695 5698 5701 5705 5708 5711 5713 5715 5719 5723 5726 5729 5731 5734 5737 5740 5743 5746 5749 5751 5754 5757 5760 5763 5766 5769 5771 5774 5776 5779 5781 5783 5785 5787 5789 5790 5791 5793 5795 5797 5800 5802 5803 5805 5807 5809 5810 5812 5814 5814 5815 5817 5818 5819 5820 5820 5820 5820 5821 5822 5823 5824
5614 5615 5617 5619 5621 5623 5625 5628 5630 5633 5635 5637 5640 5644 5647 5651 5654 5657 5661 5664 5667 5671 5674 5677 5681 5685 5689 5693 5696 5699 5702 5705 5708 5712 5715 5718 5721 5724 5727 5730 5733 5736 5739 5742 5745 5748 5751 5753 5757 5760 5763 5765 5768 5771 5773 5775 5778 5780 5782 5784 5786 5788 5789 5791 5793 5795 5797 5799 5800 5802 5806 5808 5808 5810 5811 5812 5814 5815 5816 5817 5818 5819 5819 5819 5819 5820 5821 5822
5605 5607 5609 5611 5613 5615 5618 5620 5623 5625 5627 5629 5633 5637 5641 5644 5648 5651 5655 5658 5662 5665 5668 5672 5676 5680 5684 5688 5690 5693 5697 5700 5704 5707 5710 5713 5716 5719 5722 5725 5729 5732 5735 5738 5741 5744 5747 5750 5753 5757 5759 5762 5765 5767 5770 5772 5775 5777 5779 5781 5784 5786 5787 5789 5790 5792 5793 5795 5797 5801 5805 5806 5805 5807 5809 5810 5812 5813 5814 5816 5817 5817 5817 5818 5818 5818 5819 5820
5596 5598 5600 5603 5605 5607 5610 5613 5615 5617 5619 5622 5626 5630 5634 5637 5641 5645 5648 5653 5656 5660 5663 5667 5671 5675 5679 5682 5685 5689 5693 5695 5699 5703 5706 5709 5712 5715 5718 5721 5725 5728 5731 5734 5737 5740 5742 5746 5750 5753 5756 5759 5762 5764 5766 5769 5771 5774 5777 5779 5781 5783 5785 5786 5787 5789 5790 5792 5795 5799 5803 5804 5803 5804 5806 5808 5810 5811 5812 5813 5814 5815 5815 5816 5816 5816 5817 5817
5587 5589 5591 5594 5596 5599 5602 5605 5607 5610 5611 5614 5619 5623 5627 5630 5634 5638 5642 5647 5651 5654 5658 5662 5666 5669 5673 5676 5680 5684 5687 5690 5695 5698 5701 5704 5707 5711 5714 5717 5721 5724 5727 5730 5733 5736 5739 5742 5747 5751 5754 5756 5758 5760 5762 5764 5767 5770 5774 5776 5779 5780 5782 5783 5785 5786 5787 5790 5794 5797 5800 5801 5801 5801 5804 5806 5808 5809 5810 5811 5812 5813 5814 5814 5814 5814 5814 5815
5579 5580 5582 5585 5588 5591 5594 5597 5599 5602 5604 5608 5612 5616 5620 5624 5628 5632 5637 5641 5644 5648 5653 5656 5660 5664 5667 5671 5675 5678 5682 5686 5690 5692 5696 5699 5703 5706 5709 5713 5717 5720 5724 5727 5730 5732 5735 5739 5744 5748 5750 5752 5754 5756 5758 5761 5764 5767 5771 5774 5776 5777 5779 5780 5782 5782 5784 5788 5792 5795 5797 5798 5798 5799 5801 5804 5805 5807 5808 5809 5810 5811 5812 5813 5812 5812 5812 5812
5571 5573 5575 5577 5580 5583 5586 5589 5592 5594 5597 5601 5605 5609 5614 5618 5622 5626 5630 5634 5638 5642 5647 5650 5655 5659 5662 5666 5669 5673 5678 5682 5684 5687 5691 5695 5698 5702 5705 5709 5712 5716 5720 5723 5726 5729 5732 5736 5740 5744 5746 5748 5750 5753 5755 5758 5760 5764 5768 5771 5773 5774 5776 5777 5779 5779 5782 5786 5789 5792 5795 5795 5796 5796 5799 5802 5803 5804 5805 5807 5808 5810 5810 5810 5810 5810 5810 5811
5564 5566 5568 5570 5573 5575 5578 5581 5584 5587 5590 5594 5599 5604 5608 5612 5616 5620 5624 5627 5631 5636 5640 5645 5649 5653 5657 5661 5664 5669 5673 5676 5679 5683 5687 5691 5694 5698 5702 5705 5709 5712 5715 5719 5723 5726 5730 5734 5738 5740 5742 5745 5747 5750 5753 5755 5757 5760 5764 5767 5769 5771 5773 5774 5775 5776 5779 5783 5787 5790 5792 5793 5793 5794 5796 5799 5800 5801 5803 5804 5806 5807 5808 5807 5807 5808 5809 5809
5557 5559 5561 5564 5566 5569 5571 5575 5578 5580 5584 5588 5593 5598 5602 5606 5610 5614 5617 5621 5625 5630 5635 5639 5643 5648 5651 5654 5659 5663 5667 5671 5675 5679 5683 5687 5691 5695 5698 5702 5705 5709 5713 5717 5720 5724 5728 5731 5734 5737 5739 5742 5744 5747 5750 5752 5755 5757 5760 5764 5766 5768 5770 5772 5773 5774 5777 5780 5783 5787 5789 5789 5790 5791 5793 5796 5797 5798 5800 5802 5803 5804 5805 5805 5805 5806 5807 5807
5550 5552 5555 5557 5560 5562 5565 5569 5571 5574 5578 5583 5587 5592 5596 5600 5603 5607 5611 5615 5619 5625 5629 5634 5639 5643 5645 5649 5654 5658 5662 5666 5671 5675 5680 5684 5687 5691 5695 5698 5702 5705 5710 5714 5717 5720 5723 5726 5729 5733 5736 5739 5741 5744 5747 5750 5752 5754 5758 5761 5763 5765 5767 5769 5770 5772 5774 5777 5781 5784 5785 5786 5787 5789 5790 5793 5794 5796 5798 5799 5801 5802 5802 5803 5803 5804 5805 5805
5543 5545 5548 5551 5553 5556 5559 5562 5565 5569 5573 5577 5581 5587 5591 5593 5597 5601 5605 5609 5614 5620 5624 5629 5634 5637 5641 5645 5650 5654 5659 5664 5667 5671 5676 5680 5683 5687 5691 5695 5698 5702 5706 5710 5713 5716 5719 5722 5726 5729 5732 5734 5738 5741 5744 5746 5749 5751 5755 5757 5760 5762 5764 5766 5767 5769 5771 5774 5778 5781 5782 5783 5784 5786 5788 5790 5792 5793 5795 5797 5798 5799 5800 5801 5801 5802 5802 5803
5536 5538 5541 5544 5547 5550 5553 5556 5560 5564 5567 5571 5576 5581 5585 5588 5592 5597 5601 5605 5610 5616 5620 5625 5630 5633 5637 5642 5646 5651 5657 5660 5663 5667 5671 5675 5679 5683 5686 5690 5695 5699 5702 5706 5708 5711 5715 5719 5722 5725 5728 5731 5734 5738 5741 5744 5746 5749 5752 5754 5756 5760 5762 5764 5765 5767 5769 5772 5775 5777 5779 5780 5782 5783 5785 5787 5789 5791 5792 5794 5795 5796 5798 5799 5799 5800 5800 5800
5530 5532 5535 5538 5541 5544 5547 5551 5554 5558 5561 5566 5572 5576 5579 5584 5588 5593 5597 5601 5607 5612 5616 5620 5625 5629 5633 5638 5643 5649 5655 5658 5660 5664 5668 5672 5676 5680 5683 5687 5691 5695 5699 5702 5705 5709 5713 5716 5719 5723 5725 5729 5732 5735 5738 5740 5743 5746 5749 5751 5754 5758 5760 5761 5763 5764 5766 5769 5772 5774 5776 5778 5779 5781 5783 5785 5787 5789 5790 5791 5793 5794 5795 5796 5797 5797 5797 5797
5524 5526 5529 5532 5535 5538 5542 5545 5549 5553 5556 5561 5567 5571 5576 5580 5584 5589 5593 5598 5604 5608 5612 5617 5621 5625 5629 5634 5640 5645 5650 5653 5658 5662 5665 5668 5672 5676 5680 5684 5688 5691 5695 5699 5702 5706 5710 5713 5716 5719 5722 5726 5729 5731 5734 5737 5741 5744 5746 5748 5752 5755 5757 5759 5760 5762 5764 5766 5769 5771 5773 5775 5777 5778 5780 5782 5784 5786 5788 5789 5790 5792 5793 5794 5794 5794 5794 5794
5519 5521 5523 5526 5529 5533 5537 5540 5544 5548 5552 5557 5563 5568 5572 5576 5581 5585 5589 5596 5601 5604 5609 5614 5618 5622 5626 5632 5637 5641 5645 5649 5653 5658 5661 5666 5670 5673 5677 5681 5685 5688 5691 5695 5697 5701 5705 5708 5711 5715 5718 5722 5724 5727 5730 5734 5737 5740 5743 5746 5750 5752 5754 5756 5758 5760 5761 5763 5766 5769 5770 5772 5774 5776 5778 5780 5781 5783 5785 5786 5788 5789 5790 5791 5792 5792 5792 5792
5514 5516 5519 5521 5525 5529 5533 5536 5540 5544 5549 5555 5560 5565 5569 5574 5578 5582 5587 5594 5599 5602 5606 5610 5615 5620 5625 5631 5635 5638 5642 5645 5650 5653 5657 5661 5666 5670 5673 5677 5680 5683 5687 5691 5694 5697 5701 5704 5706 5710 5715 5718 5720 5724 5727 5730 5733 5736 5739 5743 5746 5749 5751 5753 5755 5757 5757 5760 5763 5766 5768 5769 5771 5773 5776 5777 5779 5781 5782 5784 5786 5787 5788 5788 5789 5789 5790 5790
5511 5513 5515 5518 5522 5525 5529 5533 5538 5542 5548 5554 5558 5563 5568 5571 5575 5580 5586 5592 5597 5600 5604 5609 5613 5619 5624 5629 5634 5638 5641 5643 5647 5651 5654 5658 5663 5667 5670 5674 5677 5680 5683 5687 5690 5694 5698 5701 5704 5708 5711 5714 5717 5721 5724 5727 5730 5733 5736 5739 5742 5744 5746 5749 5751 5752 5754 5757 5760 5763 5765 5766 5767 5770 5773 5775 5777 5778 5779 5781 5783 5784 5785 5786 5786 5786 5787 5787
5509 5512 5514 5516 5520 5523 5527 5532 5537 5542 5547 5552 5557 5562 5566 5569 5574 5581 5586 5590 5594 5598 5602 5607 5613 5618 5623 5627 5631 5636 5640 5643 5647 5650 5653 5657 5661 5665 5669 5673 5676 5679 5683 5687 5689 5693 5695 5698 5702 5705 5708 5711 5715 5718 5722 5725 5728 5730 5733 5735 5738 5740 5742 5745 5747 5749 5751 5754 5757 5760 5762 5763 5765 5767 5771 5773 5774 5775 5776 5778 5780 5781 5782 5783 5783 5783 5784 5784
5509 5511 5513 5515 5519 5523 5527 5531 5536 5542 5547 5552 5557 5561 5564 5569 5575 5581 5585 5588 5592 5596 5600 5605 5610 5616 5622 5626 5630 5633 5636 5641 5645 5649 5652 5654 5658 5662 5666 5670 5673 5677 5682 5686 5689 5691 5694 5696 5700 5703 5706 5709 5713 5717 5721 5725 5728 5730 5732 5734 5736 5738 5741 5744 5746 5748 5749 5752 5755 5758 5759 5760 5762 5764 5767 5770 5771 5772 5773 5775 5776 5778 5779 5780 5780 5780 5780 5780
5509 5511 5512 5515 5519 5524 5528 5532 5537 5542 5547 5551 5556 5560 5565 5571 5576 5579 5583 5588 5592 5595 5599 5604 5608 5614 5619 5624 5628 5632 5635 5639 5642 5646 5650 5653 5657 5660 5664 5668 5671 5675 5679 5683 5686 5689 5692 5695 5700 5703 5705 5708 5711 5715 5719 5722 5725 5727 5730 5732 5735 5738 5741 5744 5746 5748 5749 5751 5753 5755 5756 5757 5758 5760 5764 5768 5769 5769 5770 5772 5773 5775 5776 5777 5777 5777 5777 5777
5510 5512 5514 5517 5521 5526 5529 5533 5538 5542 5547 5551 5556 5561 5567 5572 5576 5579 5582 5587 5591 5595 5599 5604 5608 5613 5617 5621 5625 5628 5633 5637 5641 5644 5647 5651 5656 5660 5664 5667 5671 5674 5678 5682 5684 5687 5690 5694 5698 5701 5703 5706 5709 5712 5716 5720 5722 5725 5727 5730 5733 5736 5739 5741 5744 5746 5747 5749 5750 5752 5753 5754 5756 5758 5761 5765 5766 5767 5768 5769 5771 5772 5773 5773 5773 5774 5774 5774
5511 5513 5516 5520 5523 5527 5530 5534 5539 5543 5548 5553 5557 5562 5567 5571 5575 5579 5582 5587 5592 5595 5599 5603 5607 5611 5616 5619 5622 5625 5630 5634 5639 5643 5646 5650 5653 5657 5661 5665 5669 5674 5678 5681 5683 5686 5690 5693 5696 5699 5701 5704 5707 5710 5713 5717 5720 5723 5726 5729 5732 5734 5736 5738 5740 5742 5744 5745 5747 5749 5750 5751 5753 5755 5758 5762 5764 5764 5765 5766 5768 5769 5769 5770 5770 5771 5771 5771
5513 5516 5518 5522 5525 5528 5531 5535 5540 5544 5549 5554 5558 5562 5566 5570 5575 5580 5583 5587 5591 5594 5598 5602 5607 5611 5615 5618 5621 5624 5628 5631 5635 5640 5645 5648 5651 5655 5658 5662 5667 5671 5675 5678 5681 5684 5688 5691 5694 5697 5699 5702 5705 5708 5711 5714 5718 5721 5725 5728 5730 5731 5733 5735 5737 5739 5741 5742 5744 5746 5748 5749 5750 5752 5755 5759 5761 5761 5762 5763 5765 5766 5766 5767 5767 5767 5768 5768
5515 5518 5520 5523 5526 5529 5532 5537 5541 5545 5549 5554 5558 5562 5567 5571 5576 5580 5583 5586 5590 5593 5597 5601 5606 5610 5614 5618 5622 5625 5628 5631 5635 5638 5642 5646 5650 5653 5657 5660 5665 5668 5672 5675 5679 5683 5686 5689 5692 5695 5697 5700 5703 5705 5709 5712 5715 5718 5721 5724 5726 5729 5731 5733 5735 5737 5739 5740 5742 5743 5745 5746 5748 5750 5753 5756 5757 5758 5759 5760 5762 5762 5763 5764 5764 5764 5765 5765
5516 5519 5521 5524 5527 5530 5533 5537 5542 5546 5551 5556 5560 5564 5569 5572 5576 5580 5583 5586 5590 5593 5596 5600 5605 5609 5613 5618 5622 5625 5629 5632 5635 5639 5642 5645 5649 5652 5655 5660 5663 5666 5669 5673 5677 5681 5684 5687 5690 5692 5695 5698 5700 5703 5707 5711 5713 5715 5717 5720 5722 5726 5728 5730 5732 5734 5736 5738 5739 5741 5743 5745 5747 5749 5750 5752 5754 5755 5756 5757 5758 5759 5759 5760 5761 5761 5762 5762
5517 5520 5522 5525 5528 5531 5535 5539 5543 5548 5553 5558 5562 5565 5569 5573 5577 5581 5584 5587 5591 5594 5597 5600 5604 5607 5611 5615 5620 5624 5628 5631 5635 5638 5641 5645 5648 5651 5655 5659 5662 5665 5668 5671 5675 5679 5682 5685 5688 5691 5694 5696 5699 5702 5706 5709 5712 5714 5716 5719 5721 5723 5726 5728 5730 5731 5733 5735 5737 5739 5741 5743 5745 5746 5748 5749 5750 5751 5752 5753 5754 5754 5755 5757 5758 5758 5759 5759
5518 5521 5524 5527 5530 5534 5537 5541 5545 5550 5554 5559 5563 5567 5571 5575 5579 5582 5585 5588 5591 5594 5597 5600 5604 5608 5610 5614 5618 5623 5627 5630 5634 5637 5641 5644 5648 5651 5655 5658 5661 5663 5667 5671 5674 5677 5681 5684 5687 5690 5692 5695 5698 5701 5704 5707 5710 5713 5715 5718 5720 5722 5724 5726 5728 5730 5731 5733 5734 5736 5738 5740 5741 5743 5744 5745 5746 5747 5749 5750 5751 5751 5752 5753 5754 5755 5755 5755
5520 5523 5526 5529 5533 5537 5540 5544 5548 5552 5556 5560 5565 5569 5573 5577 5580 5582 5585 5588 5590 5593 5597 5600 5604 5608 5611 5613 5617 5621 5626 5630 5633 5637 5640 5644 5647 5651 5654 5657 5660 5663 5666 5670 5673 5676 5679 5682 5685 5688 5691 5694 5697 5700 5703 5706 5708 5711 5713 5716 5717 5720 5722 5724 5726 5728 5729 5730 5732 5733 5734 5736 5739 5740 5741 5742 5743 5744 5745 5746 5747 5748 5749 5750 5751 5752 5752 5752
5522 5525 5529 5532 5536 5540 5544 5547 5551 5555 5559 5563 5567 5571 5575 5579 5581 5583 5585 5588 5590 5593 5596 5599 5603 5608 5611 5614 5617 5622 5626 5629 5633 5636 5640 5643 5647 5650 5653 5656 5659 5662 5665 5669 5672 5675 5678 5681 5683 5686 5689 5692 5694 5697 5700 5703 5706 5709 5711 5714 5716 5718 5720 5722 5724 5725 5726 5727 5729 5730 5731 5733 5736 5737 5738 5739 5740 5741 5742 5743 5744 5745 5746 5747 5748 5748 5749 5749
5526 5529 5532 5535 5539 5543 5547 5550 5554 5557 5562 5566 5569 5573 5577 5579 5581 5583 5585 5587 5590 5593 5596 5599 5603 5607 5611 5615 5618 5622 5626 5630 5633 5636 5639 5643 5646 5649 5652 5655 5658 5662 5665 5668 5671 5674 5677 5680 5682 5685 5688 5690 5692 5694 5698 5701 5704 5707 5709 5712 5714 5716 5718 5719 5721 5722 5724 5725 5726 5727 5728 5730 5733 5734 5735 5737 5738 5739 5740 5741 5742 5742 5743 5744 5744 5745 5745 5746
5529 5532 5535 5538 5542 5546 5549 5553 5557 5561 5565 5569 5572 5575 5578 5580 5582 5584 5586 5587 5590 5593 5597 5601 5604 5607 5611 5614 5618 5622 5626 5630 5634 5637 5639 5642 5645 5648 5651 5654 5657 5661 5664 5667 5669 5672 5676 5679 5682 5685 5687 5690 5693 5695 5698 5701 5703 5706 5708 5710 5712 5714 5716 5717 5718 5720 5721 5723 5723 5724 5726 5728 5730 5731 5733 5734 5735 5736 5737 5738 5739 5739 5740 5741 5741 5742 5742 5742
5533 5535 5538 5542 5545 5548 5552 5557 5561 5564 5568 5572 5575 5577 5579 5581 5583 5584 5587 5589 5592 5595 5599 5602 5605 5608 5611 5615 5619 5623 5627 5630 5634 5637 5639 5642 5645 5648 5650 5653 5657 5660 5663 5666 5668 5671 5674 5677 5680 5683 5686 5689 5692 5695 5697 5699 5702 5704 5706 5708 5710 5712 5713 5715 5716 5718 5719 5720 5721 5722 5723 5725 5727 5728 5730 5731 5732 5733 5734 5735 5736 5736 5737 5738 5738 5738 5739 5739
5536 5539 5541 5544 5548 5551 5555 5560 5564 5568 5571 5574 5576 5578 5580 5582 5583 5585 5588 5592 5595 5598 5601 5603 5606 5610 5613 5617 5620 5624 5627 5630 5633 5637 5640 5643 5645 5648 5650 5653 5656 5659 5662 5665 5667 5670 5673 5676 5679 5682 5685 5687 5690 5693 5695 5697 5699 5702 5704 5706 5708 5709 5711 5712 5714 5715 5716 5717 5719 5720 5721 5722 5724 5725 5726 5728 5728 5729 5730 5731 5732 5733 5734 5735 5735 5736 5736 5736
5540 5542 5545 5548 5551 5555 5559 5563 5567 5571 5574 5576 5578 5579 5581 5583 5585 5586 5590 5593 5597 5600 5602 5605 5608 5611 5615 5619 5622 5625 5628 5631 5633 5636 5640 5643 5646 5648 5651 5653 5656 5658 5661 5664 5666 5669 5672 5675 5677 5680 5683 5686 5689 5691 5693 5695 5697 5699 5701 5703 5705 5706 5708 5710 5711 5712 5714 5715 5716 5717 5718 5720 5721 5722 5723 5724 5725 5726 5727 5728 5729 5730 5731 5732 5732 5732 5732 5733
5544 5546 5549 5552 5556 5560 5563 5566 5569 5572 5575 5578 5580 5581 5582 5584 5587 5589 5592 5595 5598 5601 5604 5607 5610 5613 5616 5619 5622 5625 5629 5632 5635 5638 5641 5644 5646 5649 5651 5654 5656 5658 5661 5663 5666 5668 5671 5674 5676 5679 5682 5684 5686 5689 5691 5693 5695 5697 5699 5701 5702 5704 5706 5707 5709 5710 5711 5712 5714 5715 5716 5717 5718 5719 5720 5721 5722 5723 5724 5724 5725 5727 5728 5728 5728 5729 5729 5729
5548 5550 5554 5557 5560 5564 5567 5570 5572 5575 5577 5580 5582 5583 5584 5586 5589 5592 5594 5597 5600 5603 5606 5609 5612 5615 5617 5620 5622 5625 5629 5632 5635 5638 5641 5644 5647 5649 5652 5654 5656 5659 5661 5663 5665 5667 5670 5672 5675 5677 5680 5682 5684 5687 5689 5691 5693 5695 5696 5698 5700 5701 5703 5705 5706 5708 5709 5710 5711 5712 5713 5715 5715 5716 5717 5718 5719 5719 5720 5721 5722 5723 5724 5724 5725 5725 5725 5726
5552 5554 5557 5561 5565 5568 5571 5573 5576 5578 5580 5582 5584 5585 5587 5589 5592 5594 5597 5599 5601 5604 5607 5610 5613 5616 5619 5621 5624 5626 5629 5632 5635 5638 5641 5644 5646 5649 5651 5654 5656 5658 5660 5662 5664 5666 5668 5671 5673 5676 5678 5680 5682 5684 5686 5688 5690 5692 5693 5695 5697 5699 5700 5702 5704 5705 5706 5707 5708 5709 5710 5711 5712 5713 5714 5715 5716 5716 5717 5718 5718 5719 5720 5721 5721 5722 5722 5722